| time (UTC) | temp C | wind direction | speed KPH | gust KPH | rain 1hr cm | rain 24hr cm | rain mn cm | humidity % | barometer mb |
| 20260903133906 | 21 | 292 | 12.9 | 19.3 | 0.00 | 0.00 | 0.00 | 5 | 1004.1 |
| 20260903133849 | 21 | 270 | 19.3 | 35.4 | 0.00 | 0.00 | 0.00 | 5 | 1003.9 |
| 20260903133328 | 22 | 270 | 12.9 | 20.9 | 0.00 | 0.00 | 0.00 | 4 | 1004.6 |
| 20260903132813 | 21 | 247 | 14.5 | 20.9 | 0.00 | 0.00 | 0.00 | 4 | 1004.6 |
| 20260903132258 | 21 | 225 | 12.9 | 20.9 | 0.00 | 0.00 | 0.00 | 4 | 1005.3 |
| 20260903131737 | 21 | 270 | 11.3 | 14.5 | 0.00 | 0.00 | 0.00 | 4 | 1004.8 |
| 20260903131714 | 21 | 270 | 12.9 | 24.1 | 0.00 | 0.00 | 0.00 | 4 | 1004.9 |
| 20260903131159 | 21 | 247 | 19.3 | 38.6 | 0.00 | 0.00 | 0.00 | 5 | 1004.4 |
| 20260903130644 | 21 | 225 | 20.9 | 33.8 | 0.00 | 0.00 | 0.00 | 4 | 1004.6 |
| 20260903130123 | 21 | 225 | 16.1 | 22.5 | 0.00 | 0.00 | 0.00 | 5 | 1005.7 |
| 20260903130106 | 21 | 225 | 17.7 | 29.0 | 0.00 | 0.00 | 0.00 | 5 | 1004.6 |
| 20260903125545 | 21 | 270 | 16.1 | 29.0 | 0.00 | 0.00 | 0.00 | 4 | 1004.9 |
| 20260903125030 | 21 | 270 | 16.1 | 27.4 | 0.00 | 0.00 | 0.00 | 5 | 1003.8 |
| 20260903124515 | 21 | 270 | 19.3 | 32.2 | 0.00 | 0.00 | 0.00 | 4 | 1004.1 |
| 20260903123954 | 21 | 225 | 24.1 | 29.0 | 0.00 | 0.00 | 0.00 | 4 | 1004.5 |
| 20260903123938 | 21 | 180 | 20.9 | 35.4 | 0.00 | 0.00 | 0.00 | 4 | 1004.2 |
| 20260903123423 | 21 | 270 | 20.9 | 30.6 | 0.00 | 0.00 | 0.00 | 4 | 1003.9 |
| 20260903122902 | 22 | 292 | 20.9 | 33.8 | 0.00 | 0.00 | 0.00 | 4 | 1003.2 |
| 20260903122347 | 22 | 270 | 24.1 | 41.8 | 0.00 | 0.00 | 0.00 | 4 | 1004.3 |
| 20260903121826 | 22 | 315 | 14.5 | 19.3 | 0.00 | 0.00 | 0.00 | 4 | 1003.2 |
| 20260903121810 | 22 | 270 | 20.9 | 41.8 | 0.00 | 0.00 | 0.00 | 4 | 1003.1 |
| 20260903121249 | 22 | 225 | 17.7 | 30.6 | 0.00 | 0.00 | 0.00 | 4 | 1003.3 |
| 20260903120734 | 22 | 270 | 19.3 | 32.2 | 0.00 | 0.00 | 0.00 | 4 | 1005.6 |
| 20260903120219 | 21 | 247 | 17.7 | 35.4 | 0.00 | 0.00 | 0.00 | 4 | 1003.9 |
| 20260903115658 | 22 | 225 | 9.7 | 14.5 | 0.00 | 0.00 | 0.00 | 4 | 1005.8 |
| 20260903115643 | 22 | 270 | 14.5 | 24.1 | 0.00 | 0.00 | 0.00 | 4 | 1005.3 |
| 20260903115128 | 21 | 247 | 17.7 | 24.1 | 0.00 | 0.00 | 0.00 | 4 | 1003.5 |
| 20260903114607 | 21 | 225 | 14.5 | 24.1 | 0.00 | 0.00 | 0.00 | 4 | 1004.9 |
| 20260903114051 | 20 | 247 | 24.1 | 45.1 | 0.00 | 0.00 | 0.00 | 5 | 1003.1 |
| 20260903113530 | 20 | 270 | 19.3 | 24.1 | 0.00 | 0.00 | 0.00 | 5 | 1004.1 |
| 20260903113514 | 20 | 247 | 24.1 | 38.6 | 0.00 | 0.00 | 0.00 | 5 | 1004.7 |
| 20260903112953 | 20 | 247 | 19.3 | 33.8 | 0.00 | 0.00 | 0.00 | 5 | 1003.7 |
| 20260903112438 | 20 | 225 | 19.3 | 29.0 | 0.00 | 0.00 | 0.00 | 5 | 1005.0 |
| 20260903111923 | 20 | 270 | 17.7 | 25.7 | 0.00 | 0.00 | 0.00 | 5 | 1004.9 |
| 20260903111402 | 20 | 247 | 12.9 | 16.1 | 0.00 | 0.00 | 0.00 | 5 | 1004.7 |
| 20260903111347 | 20 | 270 | 19.3 | 29.0 | 0.00 | 0.00 | 0.00 | 5 | 1004.8 |
| 20260903110826 | 20 | 270 | 19.3 | 35.4 | 0.00 | 0.00 | 0.00 | 5 | 1004.4 |
| 20260903110310 | 20 | 270 | 19.3 | 32.2 | 0.00 | 0.00 | 0.00 | 5 | 1004.5 |
| 20260903105755 | 20 | 247 | 24.1 | 43.5 | 0.00 | 0.00 | 0.00 | 5 | 1003.0 |
| 20260903105234 | 20 | 315 | 24.1 | 32.2 | 0.00 | 0.00 | 0.00 | 5 | 1004.9 |
| 20260903105219 | 20 | 270 | 19.3 | 30.6 | 0.00 | 0.00 | 0.00 | 5 | 1004.5 |
| 20260903104704 | 20 | 247 | 17.7 | 30.6 | 0.00 | 0.00 | 0.00 | 5 | 1004.6 |
| 20260903104143 | 20 | 270 | 19.3 | 33.8 | 0.00 | 0.00 | 0.00 | 5 | 1004.2 |
| 20260903103628 | 20 | 270 | 22.5 | 38.6 | 0.00 | 0.00 | 0.00 | 5 | 1003.3 |
| 20260903103107 | 20 | 247 | 19.3 | 24.1 | 0.00 | 0.00 | 0.00 | 5 | 1003.1 |
| 20260903103051 | 21 | 270 | 24.1 | 37.0 | 0.00 | 0.00 | 0.00 | 5 | 1004.0 |
| 20260903102530 | 21 | 247 | 22.5 | 38.6 | 0.00 | 0.00 | 0.00 | 5 | 1004.0 |
| 20260903102015 | 21 | 247 | 19.3 | 43.5 | 0.00 | 0.00 | 0.00 | 4 | 1005.3 |
| 20260903101500 | 20 | 270 | 19.3 | 33.8 | 0.00 | 0.00 | 0.00 | 5 | 1003.9 |
| 20260903100939 | 20 | 270 | 19.3 | 27.4 | 0.00 | 0.00 | 0.00 | 5 | 1002.4 |
| 20260903100915 | 21 | 270 | 19.3 | 33.8 | 0.00 | 0.00 | 0.00 | 4 | 1004.3 |
| 20260903100400 | 21 | 225 | 19.3 | 33.8 | 0.00 | 0.00 | 0.00 | 5 | 1004.1 |
| 20260903095845 | 21 | 270 | 22.5 | 37.0 | 0.00 | 0.00 | 0.00 | 5 | 1003.2 |
| 20260903095324 | 21 | 292 | 27.4 | 35.4 | 0.00 | 0.00 | 0.00 | 4 | 1003.9 |
| 20260903095307 | 21 | 292 | 19.3 | 29.0 | 0.00 | 0.00 | 0.00 | 5 | 1003.5 |
| 20260903094752 | 21 | 292 | 19.3 | 35.4 | 0.00 | 0.00 | 0.00 | 5 | 1002.5 |
| 20260903094237 | 21 | 270 | 20.9 | 33.8 | 0.00 | 0.00 | 0.00 | 4 | 1004.0 |
| 20260903093716 | 20 | 270 | 19.3 | 30.6 | 0.00 | 0.00 | 0.00 | 5 | 1002.5 |
| 20260903093155 | 21 | 247 | 12.9 | 16.1 | 0.00 | 0.00 | 0.00 | 5 | 1004.2 |
| 20260903093138 | 21 | 270 | 16.1 | 35.4 | 0.00 | 0.00 | 0.00 | 5 | 1004.5 |
| 20260903092623 | 20 | 180 | 14.5 | 22.5 | 0.00 | 0.00 | 0.00 | 5 | 1006.6 |
| 20260903092102 | 20 | 270 | 19.3 | 35.4 | 0.00 | 0.00 | 0.00 | 5 | 1002.4 |
| 20260903091540 | 20 | 270 | 9.7 | 14.5 | 0.00 | 0.00 | 0.00 | 5 | 1004.5 |
| 20260903091522 | 20 | 270 | 12.9 | 27.4 | 0.00 | 0.00 | 0.00 | 5 | 1004.3 |
| 20260903091007 | 20 | 247 | 11.3 | 27.4 | 0.00 | 0.00 | 0.00 | 5 | 1005.3 |
| 20260903090446 | 20 | 292 | 16.1 | 25.7 | 0.00 | 0.00 | 0.00 | 5 | 1002.7 |
| 20260903085925 | 20 | 270 | 9.7 | 14.5 | 0.00 | 0.00 | 0.00 | 5 | 1004.4 |
| 20260903085908 | 19 | 270 | 14.5 | 24.1 | 0.00 | 0.00 | 0.00 | 5 | 1004.2 |
| 20260903085353 | 19 | 270 | 11.3 | 22.5 | 0.00 | 0.00 | 0.00 | 5 | 1002.5 |
| 20260903084832 | 18 | 225 | 14.5 | 24.1 | 0.00 | 0.00 | 0.00 | 5 | 1002.0 |
| 20260903084317 | 18 | 225 | 12.9 | 17.7 | 0.00 | 0.00 | 0.00 | 5 | 1006.2 |
| 20260903083756 | 18 | 270 | 14.5 | 17.7 | 0.00 | 0.00 | 0.00 | 6 | 1002.2 |
| 20260903083739 | 18 | 270 | 14.5 | 22.5 | 0.00 | 0.00 | 0.00 | 5 | 1002.8 |
| 20260903083218 | 18 | 225 | 11.3 | 20.9 | 0.00 | 0.00 | 0.00 | 5 | 1004.6 |
| 20260903082703 | 17 | 225 | 12.9 | 19.3 | 0.00 | 0.00 | 0.00 | 6 | 1005.6 |
| 20260903082142 | 17 | 225 | 8.0 | 11.3 | 0.00 | 0.00 | 0.00 | 6 | 1005.6 |
| 20260903082125 | 17 | 225 | 12.9 | 20.9 | 0.00 | 0.00 | 0.00 | 6 | 1005.7 |
| 20260903081604 | 18 | 247 | 11.3 | 17.7 | 0.00 | 0.00 | 0.00 | 6 | 1003.1 |
| 20260903081049 | 18 | 292 | 8.0 | 14.5 | 0.00 | 0.00 | 0.00 | 6 | 1003.4 |
| 20260903080534 | 18 | 225 | 6.4 | 12.9 | 0.00 | 0.00 | 0.00 | 6 | 1006.7 |
| 20260903080013 | 18 | 225 | 0.0 | 0.0 | 0.00 | 0.00 | 0.00 | 6 | 1006.4 |
| 20260903075957 | 18 | 247 | 9.7 | 20.9 | 0.00 | 0.00 | 0.00 | 6 | 1005.7 |
| 20260903075436 | 18 | 270 | 11.3 | 19.3 | 0.00 | 0.00 | 0.00 | 6 | 1005.5 |
| 20260903074921 | 18 | 225 | 11.3 | 22.5 | 0.00 | 0.00 | 0.00 | 6 | 1005.3 |
| 20260903074406 | 17 | 225 | 16.1 | 25.7 | 0.00 | 0.00 | 0.00 | 6 | 1003.1 |
| 20260903073845 | 17 | 180 | 11.3 | 14.5 | 0.00 | 0.00 | 0.00 | 6 | 1006.6 |
| 20260903073829 | 17 | 225 | 11.3 | 17.7 | 0.00 | 0.00 | 0.00 | 6 | 1006.6 |
| 20260903073314 | 17 | 180 | 11.3 | 20.9 | 0.00 | 0.00 | 0.00 | 6 | 1007.1 |
| 20260903072753 | 17 | 247 | 11.3 | 19.3 | 0.00 | 0.00 | 0.00 | 7 | 1004.0 |
| 20260903072238 | 17 | 225 | 8.0 | 14.5 | 0.00 | 0.00 | 0.00 | 7 | 1006.6 |
| 20260903071717 | 17 | 225 | 8.0 | 11.3 | 0.00 | 0.00 | 0.00 | 7 | 1005.1 |
| 20260903071701 | 17 | 247 | 8.0 | 17.7 | 0.00 | 0.00 | 0.00 | 7 | 1005.7 |
| 20260903071140 | 16 | 225 | 9.7 | 16.1 | 0.00 | 0.00 | 0.00 | 7 | 1007.5 |
| 20260903070625 | 16 | 247 | 11.3 | 17.7 | 0.00 | 0.00 | 0.00 | 8 | 1006.5 |
| 20260903070110 | 16 | 270 | 11.3 | 17.7 | 0.00 | 0.00 | 0.00 | 8 | 1006.9 |
| 20260903065549 | 16 | 225 | 11.3 | 16.1 | 0.00 | 0.00 | 0.00 | 8 | 1006.7 |
| 20260903065533 | 16 | 247 | 12.9 | 20.9 | 0.00 | 0.00 | 0.00 | 7 | 1007.1 |
| 20260903065012 | 15 | 225 | 11.3 | 19.3 | 0.00 | 0.00 | 0.00 | 8 | 1006.9 |
| 20260903064457 | 15 | 247 | 12.9 | 20.9 | 0.00 | 0.00 | 0.00 | 8 | 1006.8 |
| 20260903063942 | 15 | 247 | 12.9 | 17.7 | 0.00 | 0.00 | 0.00 | 8 | 1008.5 |
| 20260903063421 | 15 | 247 | 14.5 | 19.3 | 0.00 | 0.00 | 0.00 | 8 | 1006.9 |
| 20260903063405 | 15 | 270 | 12.9 | 19.3 | 0.00 | 0.00 | 0.00 | 8 | 1006.6 |
| 20260903062844 | 15 | 247 | 11.3 | 16.1 | 0.00 | 0.00 | 0.00 | 8 | 1007.8 |
| 20260903062329 | 15 | 247 | 11.3 | 17.7 | 0.00 | 0.00 | 0.00 | 8 | 1008.0 |
| 20260903061814 | 15 | 225 | 9.7 | 16.1 | 0.00 | 0.00 | 0.00 | 8 | 1008.4 |
| 20260903061253 | 15 | 247 | 8.0 | 9.7 | 0.00 | 0.00 | 0.00 | 8 | 1008.4 |
| 20260903061237 | 15 | 225 | 12.9 | 19.3 | 0.00 | 0.00 | 0.00 | 8 | 1008.9 |
| 20260903060716 | 14 | 225 | 11.3 | 17.7 | 0.00 | 0.00 | 0.00 | 8 | 1010.1 |
| 20260903060200 | 14 | 270 | 11.3 | 17.7 | 0.00 | 0.00 | 0.00 | 9 | 1008.3 |
| 20260903055645 | 14 | 247 | 11.3 | 17.7 | 0.00 | 0.00 | 0.00 | 9 | 1008.4 |
| 20260903055124 | 14 | 270 | 8.0 | 11.3 | 0.00 | 0.00 | 0.00 | 9 | 1007.5 |
| 20260903055108 | 14 | 247 | 11.3 | 17.7 | 0.00 | 0.00 | 0.00 | 9 | 1007.4 |
| 20260903054547 | 13 | 270 | 11.3 | 17.7 | 0.00 | 0.00 | 0.00 | 9 | 1008.3 |
| 20260903054032 | 13 | 247 | 12.9 | 20.9 | 0.00 | 0.00 | 0.00 | 9 | 1009.4 |
| 20260903053517 | 13 | 247 | 11.3 | 16.1 | 0.00 | 0.00 | 0.00 | 9 | 1009.2 |
| 20260903052956 | 13 | 225 | 6.4 | 8.0 | 0.00 | 0.00 | 0.00 | 9 | 1010.0 |
| 20260903052933 | 13 | 225 | 8.0 | 14.5 | 0.00 | 0.00 | 0.00 | 9 | 1009.6 |
| 20260903052418 | 13 | 270 | 9.7 | 17.7 | 0.00 | 0.00 | 0.00 | 9 | 1008.5 |
| 20260903051903 | 13 | 270 | 12.9 | 17.7 | 0.00 | 0.00 | 0.00 | 9 | 1009.1 |
| 20260903051342 | 13 | 225 | 9.7 | 12.9 | 0.00 | 0.00 | 0.00 | 9 | 1009.3 |
| 20260903051317 | 13 | 270 | 14.5 | 19.3 | 0.00 | 0.00 | 0.00 | 9 | 1009.0 |
| 20260903050802 | 13 | 270 | 14.5 | 19.3 | 0.00 | 0.00 | 0.00 | 9 | 1009.0 |
| 20260903050247 | 13 | 247 | 12.9 | 16.1 | 0.00 | 0.00 | 0.00 | 9 | 1008.8 |
| 20260903045726 | 13 | 247 | 11.3 | 14.5 | 0.00 | 0.00 | 0.00 | 9 | 1008.9 |
| 20260903045709 | 13 | 247 | 11.3 | 17.7 | 0.00 | 0.00 | 0.00 | 9 | 1009.1 |
| 20260903045148 | 13 | 270 | 12.9 | 16.1 | 0.00 | 0.00 | 0.00 | 9 | 1009.1 |
| 20260903044633 | 13 | 247 | 12.9 | 19.3 | 0.00 | 0.00 | 0.00 | 9 | 1009.4 |
| 20260903044118 | 13 | 247 | 14.5 | 19.3 | 0.00 | 0.00 | 0.00 | 9 | 1009.6 |
| 20260903043557 | 13 | 225 | 11.3 | 14.5 | 0.00 | 0.00 | 0.00 | 9 | 1010.1 |
| 20260903043541 | 13 | 247 | 12.9 | 17.7 | 0.00 | 0.00 | 0.00 | 9 | 1010.1 |
| 20260903043026 | 13 | 247 | 12.9 | 16.1 | 0.00 | 0.00 | 0.00 | 9 | 1009.9 |
| 20260903042511 | 13 | 247 | 12.9 | 17.7 | 0.00 | 0.00 | 0.00 | 9 | 1010.3 |
| 20260903041950 | 13 | 247 | 14.5 | 17.7 | 0.00 | 0.00 | 0.00 | 9 | 1010.5 |
| 20260903041429 | 13 | 270 | 12.9 | 17.7 | 0.00 | 0.00 | 0.00 | 9 | 1010.7 |
| 20260903041413 | 13 | 270 | 14.5 | 19.3 | 0.00 | 0.00 | 0.00 | 9 | 1010.9 |
| 20260903040858 | 13 | 247 | 14.5 | 19.3 | 0.00 | 0.00 | 0.00 | 9 | 1010.6 |
| 20260903040337 | 13 | 247 | 14.5 | 19.3 | 0.00 | 0.00 | 0.00 | 9 | 1011.0 |
| 20260903035822 | 13 | 247 | 12.9 | 19.3 | 0.00 | 0.00 | 0.00 | 9 | 1010.8 |
| 20260903035301 | 13 | 247 | 11.3 | 14.5 | 0.00 | 0.00 | 0.00 | 10 | 1010.8 |
| 20260903035245 | 13 | 270 | 12.9 | 17.7 | 0.00 | 0.00 | 0.00 | 10 | 1010.8 |
| 20260903034724 | 13 | 270 | 12.9 | 16.1 | 0.00 | 0.00 | 0.00 | 9 | 1010.5 |
| 20260903034209 | 13 | 247 | 12.9 | 17.7 | 0.00 | 0.00 | 0.00 | 9 | 1010.4 |
| 20260903033654 | 13 | 247 | 11.3 | 17.7 | 0.00 | 0.00 | 0.00 | 9 | 1010.4 |
| 20260903033133 | 13 | 270 | 9.7 | 12.9 | 0.00 | 0.00 | 0.00 | 9 | 1010.4 |
| 20260903033117 | 13 | 270 | 11.3 | 16.1 | 0.00 | 0.00 | 0.00 | 9 | 1010.4 |
| 20260903032556 | 13 | 270 | 11.3 | 17.7 | 0.00 | 0.00 | 0.00 | 9 | 1010.0 |
| 20260903032041 | 13 | 270 | 11.3 | 17.7 | 0.00 | 0.00 | 0.00 | 9 | 1010.4 |
| 20260903031526 | 13 | 247 | 11.3 | 17.7 | 0.00 | 0.00 | 0.00 | 9 | 1010.4 |
| 20260903031005 | 13 | 270 | 8.0 | 11.3 | 0.00 | 0.00 | 0.00 | 9 | 1010.2 |
| 20260903030948 | 13 | 270 | 11.3 | 16.1 | 0.00 | 0.00 | 0.00 | 9 | 1010.0 |
| 20260903030433 | 13 | 247 | 11.3 | 16.1 | 0.00 | 0.00 | 0.00 | 9 | 1010.2 |
| 20260903025912 | 13 | 270 | 11.3 | 17.7 | 0.00 | 0.00 | 0.00 | 9 | 1009.9 |
| 20260903025350 | 13 | 247 | 6.4 | 9.7 | 0.00 | 0.00 | 0.00 | 9 | 1010.0 |
| 20260903025334 | 13 | 247 | 9.7 | 14.5 | 0.00 | 0.00 | 0.00 | 9 | 1010.1 |
| 20260903024819 | 13 | 270 | 11.3 | 16.1 | 0.00 | 0.00 | 0.00 | 9 | 1009.6 |
| 20260903024258 | 13 | 270 | 9.7 | 14.5 | 0.00 | 0.00 | 0.00 | 9 | 1009.7 |
| 20260903023743 | 13 | 247 | 9.7 | 16.1 | 0.00 | 0.00 | 0.00 | 9 | 1009.9 |
| 20260903023222 | 13 | 270 | 4.8 | 4.8 | 0.00 | 0.00 | 0.00 | 9 | 1009.7 |
| 20260903023206 | 13 | 270 | 9.7 | 14.5 | 0.00 | 0.00 | 0.00 | 9 | 1009.9 |
| 20260903022645 | 13 | 270 | 9.7 | 14.5 | 0.00 | 0.00 | 0.00 | 9 | 1009.0 |
| 20260903022130 | 13 | 247 | 11.3 | 17.7 | 0.00 | 0.00 | 0.00 | 9 | 1009.9 |
| 20260903021615 | 13 | 270 | 9.7 | 16.1 | 0.00 | 0.00 | 0.00 | 9 | 1009.8 |
| 20260903021054 | 13 | 270 | 11.3 | 14.5 | 0.00 | 0.00 | 0.00 | 9 | 1009.3 |
| 20260903021038 | 13 | 270 | 12.9 | 17.7 | 0.00 | 0.00 | 0.00 | 9 | 1009.3 |
| 20260903020523 | 14 | 270 | 11.3 | 17.7 | 0.00 | 0.00 | 0.00 | 9 | 1009.1 |
| 20260903015447 | 13 | 270 | 9.7 | 16.1 | 0.00 | 0.00 | 0.00 | 8 | 1008.9 |
| 20260903014926 | 13 | 247 | 11.3 | 14.5 | 0.00 | 0.00 | 0.00 | 9 | 1008.7 |
| 20260903014910 | 13 | 225 | 9.7 | 16.1 | 0.00 | 0.00 | 0.00 | 9 | 1008.7 |
| 20260903014355 | 13 | 247 | 8.0 | 12.9 | 0.00 | 0.00 | 0.00 | 9 | 1009.1 |
| 20260903013834 | 13 | 247 | 6.4 | 12.9 | 0.00 | 0.00 | 0.00 | 8 | 1008.5 |
| 20260903013319 | 13 | 247 | 4.8 | 11.3 | 0.00 | 0.00 | 0.00 | 8 | 1007.9 |
| 20260903012758 | 13 | 225 | 4.8 | 6.4 | 0.00 | 0.00 | 0.00 | 8 | 1008.0 |
| 20260903012742 | 13 | 225 | 6.4 | 12.9 | 0.00 | 0.00 | 0.00 | 8 | 1008.0 |
| 20260903012221 | 13 | 247 | 6.4 | 12.9 | 0.00 | 0.00 | 0.00 | 8 | 1008.6 |
| 20260903011706 | 13 | 247 | 4.8 | 8.0 | 0.00 | 0.00 | 0.00 | 8 | 1009.1 |
| 20260903011151 | 13 | 270 | 6.4 | 11.3 | 0.00 | 0.00 | 0.00 | 9 | 1010.1 |
| 20260903010630 | 13 | 270 | 8.0 | 9.7 | 0.00 | 0.00 | 0.00 | 9 | 1010.2 |
| 20260903010606 | 13 | 270 | 8.0 | 11.3 | 0.00 | 0.00 | 0.00 | 9 | 1010.1 |
| 20260903010051 | 13 | 270 | 8.0 | 12.9 | 0.00 | 0.00 | 0.00 | 9 | 1010.3 |
| 20260903005536 | 13 | 270 | 8.0 | 12.9 | 0.00 | 0.00 | 0.00 | 9 | 1010.3 |
| 20260903005015 | 13 | 247 | 6.4 | 8.0 | 0.00 | 0.00 | 0.00 | 9 | 1011.4 |
| 20260903004951 | 13 | 270 | 9.7 | 14.5 | 0.00 | 0.00 | 0.00 | 9 | 1011.4 |
| 20260903004436 | 13 | 247 | 6.4 | 11.3 | 0.00 | 0.00 | 0.00 | 9 | 1011.1 |
| 20260903003921 | 13 | 247 | 4.8 | 8.0 | 0.00 | 0.00 | 0.00 | 9 | 1011.0 |
| 20260903003400 | 13 | 247 | 6.4 | 6.4 | 0.00 | 0.00 | 0.00 | 9 | 1011.3 |
| 20260903003335 | 13 | 247 | 6.4 | 11.3 | 0.00 | 0.00 | 0.00 | 9 | 1010.9 |
| 20260903002821 | 13 | 247 | 4.8 | 11.3 | 0.00 | 0.00 | 0.00 | 9 | 1009.8 |
| 20260903002306 | 13 | 247 | 4.8 | 8.0 | 0.00 | 0.00 | 0.00 | 8 | 1010.6 |
| 20260903001745 | 13 | 247 | 3.2 | 4.8 | 0.00 | 0.00 | 0.00 | 9 | 1010.5 |
| 20260903001728 | 13 | 270 | 6.4 | 11.3 | 0.00 | 0.00 | 0.00 | 9 | 1010.4 |
| 20260903001213 | 14 | 247 | 6.4 | 9.7 | 0.00 | 0.00 | 0.00 | 8 | 1009.7 |
| 20260903000652 | 13 | 270 | 4.8 | 8.0 | 0.00 | 0.00 | 0.00 | 8 | 1009.4 |
| 20260903000137 | 13 | 270 | 6.4 | 11.3 | 0.00 | 0.00 | 0.00 | 8 | 1010.0 |
| 20260902235616 | 13 | 247 | 4.8 | 4.8 | 0.00 | 0.00 | 0.00 | 8 | 1010.1 |
| 20260902235600 | 13 | 247 | 4.8 | 8.0 | 0.00 | 0.00 | 0.00 | 8 | 1009.9 |
| 20260902235039 | 13 | 270 | 6.4 | 12.9 | 0.00 | 0.00 | 0.00 | 9 | 1010.8 |
| 20260902234524 | 13 | 247 | 6.4 | 11.3 | 0.00 | 0.00 | 0.00 | 9 | 1010.5 |
| 20260902234009 | 14 | 270 | 6.4 | 9.7 | 0.00 | 0.00 | 0.00 | 8 | 1010.2 |
| 20260902233448 | 14 | 270 | 6.4 | 8.0 | 0.00 | 0.00 | 0.00 | 8 | 1010.2 |
| 20260902233432 | 14 | 247 | 6.4 | 9.7 | 0.00 | 0.00 | 0.00 | 8 | 1010.2 |
| 20260902232911 | 13 | 247 | 4.8 | 8.0 | 0.00 | 0.00 | 0.00 | 8 | 1010.6 |
| 20260902232356 | 14 | 247 | 6.4 | 9.7 | 0.00 | 0.00 | 0.00 | 8 | 1010.8 |
| 20260902231841 | 14 | 247 | 6.4 | 9.7 | 0.00 | 0.00 | 0.00 | 8 | 1010.8 |
| 20260902231320 | 14 | 270 | 6.4 | 9.7 | 0.00 | 0.00 | 0.00 | 8 | 1010.5 |
| 20260902231304 | 14 | 270 | 6.4 | 9.7 | 0.00 | 0.00 | 0.00 | 8 | 1010.6 |
| 20260902230749 | 14 | 247 | 6.4 | 9.7 | 0.00 | 0.00 | 0.00 | 8 | 1010.3 |
| 20260902230226 | 14 | 270 | 4.8 | 8.0 | 0.00 | 0.00 | 0.00 | 8 | 1009.9 |
| 20260902225705 | 14 | 247 | 6.4 | 8.0 | 0.00 | 0.00 | 0.00 | 8 | 1009.6 |
| 20260902225648 | 14 | 270 | 6.4 | 9.7 | 0.00 | 0.00 | 0.00 | 8 | 1009.8 |
| 20260902225133 | 15 | 247 | 4.8 | 8.0 | 0.00 | 0.00 | 0.00 | 8 | 1009.3 |
| 20260902224612 | 15 | 270 | 6.4 | 9.7 | 0.00 | 0.00 | 0.00 | 8 | 1009.0 |
| 20260902224057 | 15 | 270 | 4.8 | 9.7 | 0.00 | 0.00 | 0.00 | 8 | 1008.9 |
| 20260902223536 | 15 | 270 | 6.4 | 6.4 | 0.00 | 0.00 | 0.00 | 8 | 1009.2 |
| 20260902223519 | 15 | 247 | 4.8 | 4.8 | 0.00 | 0.00 | 0.00 | 7 | 1009.4 |
| 20260902222958 | 15 | 270 | 3.2 | 4.8 | 0.00 | 0.00 | 0.00 | 8 | 1009.3 |
| 20260902222442 | 15 | 247 | 0.0 | 4.8 | 0.00 | 0.00 | 0.00 | 7 | 1009.5 |
| 20260902221921 | 15 | 247 | 0.0 | 4.8 | 0.00 | 0.00 | 0.00 | 7 | 1009.0 |
| 20260902221905 | 15 | 247 | 4.8 | 8.0 | 0.00 | 0.00 | 0.00 | 7 | 1009.1 |
| 20260902221344 | 15 | 247 | 0.0 | 0.0 | 0.00 | 0.00 | 0.00 | 7 | 1009.3 |
| 20260902220829 | 15 | 270 | 0.0 | 0.0 | 0.00 | 0.00 | 0.00 | 7 | 1008.4 |
| 20260902220314 | 15 | 225 | 0.0 | 0.0 | 0.00 | 0.00 | 0.00 | 7 | 1008.2 |
| 20260902215753 | 15 | 247 | 0.0 | 0.0 | 0.00 | 0.00 | 0.00 | 7 | 1008.8 |
| 20260902215737 | 15 | 247 | 0.0 | 0.0 | 0.00 | 0.00 | 0.00 | 7 | 1008.8 |
| 20260902215216 | 15 | 225 | 0.0 | 0.0 | 0.00 | 0.00 | 0.00 | 6 | 1008.4 |
| 20260902214700 | 16 | 225 | 0.0 | 0.0 | 0.00 | 0.00 | 0.00 | 6 | 1008.4 |
| 20260902214145 | 16 | 270 | 0.0 | 0.0 | 0.00 | 0.00 | 0.00 | 6 | 1007.1 |
| 20260902213624 | 16 | 270 | 0.0 | 0.0 | 0.00 | 0.00 | 0.00 | 6 | 1007.5 |
| 20260902213609 | 16 | 270 | 4.8 | 8.0 | 0.00 | 0.00 | 0.00 | 6 | 1007.3 |
| 20260902213054 | 16 | 270 | 4.8 | 9.7 | 0.00 | 0.00 | 0.00 | 6 | 1007.3 |
| 20260902212533 | 16 | 270 | 4.8 | 8.0 | 0.00 | 0.00 | 0.00 | 7 | 1007.6 |
| 20260902212018 | 16 | 247 | 4.8 | 8.0 | 0.00 | 0.00 | 0.00 | 7 | 1007.6 |
| 20260902211457 | 16 | 247 | 4.8 | 6.4 | 0.00 | 0.00 | 0.00 | 7 | 1006.5 |
| 20260902211439 | 16 | 247 | 4.8 | 9.7 | 0.00 | 0.00 | 0.00 | 7 | 1006.5 |
| 20260902210918 | 16 | 225 | 0.0 | 4.8 | 0.00 | 0.00 | 0.00 | 6 | 1008.4 |
| 20260902210403 | 16 | 247 | 6.4 | 11.3 | 0.00 | 0.00 | 0.00 | 7 | 1008.4 |
| 20260902205842 | 16 | 247 | 4.8 | 6.4 | 0.00 | 0.00 | 0.00 | 7 | 1008.3 |
| 20260902205825 | 16 | 247 | 6.4 | 12.9 | 0.00 | 0.00 | 0.00 | 7 | 1007.7 |
| 20260902205306 | 16 | 247 | 6.4 | 11.3 | 0.00 | 0.00 | 0.00 | 7 | 1007.9 |
| 20260902204749 | 16 | 270 | 6.4 | 9.7 | 0.00 | 0.00 | 0.00 | 7 | 1007.9 |
| 20260902204234 | 16 | 225 | 9.7 | 14.5 | 0.00 | 0.00 | 0.00 | 7 | 1008.1 |
| 20260902203713 | 16 | 247 | 9.7 | 11.3 | 0.00 | 0.00 | 0.00 | 6 | 1007.8 |
| 20260902203650 | 16 | 225 | 8.0 | 12.9 | 0.00 | 0.00 | 0.00 | 6 | 1007.8 |
| 20260902203135 | 17 | 225 | 6.4 | 11.3 | 0.00 | 0.00 | 0.00 | 6 | 1008.6 |
| 20260902202620 | 17 | 270 | 8.0 | 14.5 | 0.00 | 0.00 | 0.00 | 6 | 1007.0 |
| 20260902202057 | 17 | 270 | 6.4 | 6.4 | 0.00 | 0.00 | 0.00 | 6 | 1006.8 |
| 20260902202034 | 17 | 270 | 8.0 | 16.1 | 0.00 | 0.00 | 0.00 | 6 | 1006.9 |
| 20260902201518 | 17 | 247 | 8.0 | 16.1 | 0.00 | 0.00 | 0.00 | 6 | 1007.3 |
| 20260902201003 | 17 | 247 | 4.8 | 8.0 | 0.00 | 0.00 | 0.00 | 7 | 1007.6 |
| 20260902200442 | 16 | 270 | 4.8 | 4.8 | 0.00 | 0.00 | 0.00 | 6 | 1007.5 |
| 20260902200418 | 16 | 225 | 6.4 | 9.7 | 0.00 | 0.00 | 0.00 | 6 | 1007.5 |
| 20260902195903 | 17 | 247 | 8.0 | 14.5 | 0.00 | 0.00 | 0.00 | 6 | 1007.4 |
| 20260902195348 | 17 | 225 | 8.0 | 12.9 | 0.00 | 0.00 | 0.00 | 6 | 1007.5 |
| 20260902194827 | 17 | 247 | 4.8 | 6.4 | 0.00 | 0.00 | 0.00 | 7 | 1007.4 |
| 20260902194810 | 17 | 247 | 9.7 | 16.1 | 0.00 | 0.00 | 0.00 | 7 | 1007.5 |
| 20260902194249 | 17 | 225 | 12.9 | 20.9 | 0.00 | 0.00 | 0.00 | 6 | 1007.2 |
| 20260902193734 | 16 | 225 | 11.3 | 22.5 | 0.00 | 0.00 | 0.00 | 6 | 1008.8 |
| 20260902193219 | 18 | 270 | 11.3 | 24.1 | 0.00 | 0.00 | 0.00 | 5 | 1006.4 |
| 20260902192658 | 18 | 292 | 9.7 | 11.3 | 0.00 | 0.00 | 0.00 | 5 | 1006.7 |
| 20260902192642 | 18 | 270 | 9.7 | 16.1 | 0.00 | 0.00 | 0.00 | 5 | 1006.5 |
| 20260902192121 | 18 | 292 | 11.3 | 17.7 | 0.00 | 0.00 | 0.00 | 6 | 1006.0 |
| 20260902191606 | 18 | 270 | 11.3 | 17.7 | 0.00 | 0.00 | 0.00 | 5 | 1006.0 |
| 20260902191051 | 18 | 270 | 4.8 | 11.3 | 0.00 | 0.00 | 0.00 | 5 | 1006.5 |
| 20260902190530 | 18 | 270 | 0.0 | 0.0 | 0.00 | 0.00 | 0.00 | 6 | 1006.8 |
| 20260902190507 | 18 | 247 | 3.2 | 6.4 | 0.00 | 0.00 | 0.00 | 6 | 1006.4 |
| 20260902185951 | 18 | 270 | 3.2 | 6.4 | 0.00 | 0.00 | 0.00 | 5 | 1005.7 |
| 20260902185436 | 18 | 225 | 6.4 | 14.5 | 0.00 | 0.00 | 0.00 | 5 | 1007.2 |
| 20260902184914 | 18 | 270 | 6.4 | 8.0 | 0.00 | 0.00 | 0.00 | 5 | 1005.9 |
| 20260902184858 | 18 | 247 | 6.4 | 14.5 | 0.00 | 0.00 | 0.00 | 5 | 1005.8 |
| 20260902184343 | 19 | 270 | 8.0 | 14.5 | 0.00 | 0.00 | 0.00 | 5 | 1005.6 |
| 20260902183828 | 18 | 270 | 9.7 | 14.5 | 0.00 | 0.00 | 0.00 | 5 | 1005.8 |
| 20260902183307 | 18 | 270 | 8.0 | 12.9 | 0.00 | 0.00 | 0.00 | 5 | 1005.7 |
| 20260902182746 | 18 | 270 | 6.4 | 8.0 | 0.00 | 0.00 | 0.00 | 5 | 1005.5 |
| 20260902182730 | 18 | 270 | 6.4 | 12.9 | 0.00 | 0.00 | 0.00 | 5 | 1005.7 |
| 20260902182215 | 18 | 270 | 6.4 | 11.3 | 0.00 | 0.00 | 0.00 | 5 | 1005.8 |
| 20260902181654 | 19 | 270 | 6.4 | 14.5 | 0.00 | 0.00 | 0.00 | 5 | 1005.5 |
| 20260902181139 | 19 | 270 | 8.0 | 12.9 | 0.00 | 0.00 | 0.00 | 5 | 1005.4 |
| 20260902180618 | 19 | 270 | 0.0 | 0.0 | 0.00 | 0.00 | 0.00 | 5 | 1005.4 |
| 20260902180602 | 19 | 270 | 4.8 | 8.0 | 0.00 | 0.00 | 0.00 | 5 | 1005.3 |
| 20260902180041 | 19 | 270 | 4.8 | 9.7 | 0.00 | 0.00 | 0.00 | 5 | 1005.2 |
| 20260902175526 | 18 | 247 | 4.8 | 8.0 | 0.00 | 0.00 | 0.00 | 5 | 1004.8 |
| 20260902175011 | 18 | 270 | 6.4 | 9.7 | 0.00 | 0.00 | 0.00 | 5 | 1004.3 |
| 20260902174450 | 18 | 270 | 6.4 | 6.4 | 0.00 | 0.00 | 0.00 | 6 | 1005.2 |
| 20260902174426 | 18 | 270 | 6.4 | 11.3 | 0.00 | 0.00 | 0.00 | 6 | 1005.4 |
| 20260902173911 | 18 | 247 | 8.0 | 14.5 | 0.00 | 0.00 | 0.00 | 6 | 1005.5 |
| 20260902173356 | 18 | 270 | 8.0 | 16.1 | 0.00 | 0.00 | 0.00 | 6 | 1005.3 |
| 20260902172835 | 18 | 202 | 11.3 | 16.1 | 0.00 | 0.00 | 0.00 | 5 | 1006.6 |
| 20260902172818 | 18 | 202 | 17.7 | 24.1 | 0.00 | 0.00 | 0.00 | 6 | 1006.4 |
| 20260902172257 | 20 | 270 | 20.9 | 43.5 | 0.00 | 0.00 | 0.00 | 5 | 1004.1 |
| 20260902171742 | 20 | 270 | 6.4 | 16.1 | 0.00 | 0.00 | 0.00 | 4 | 1005.9 |
| 20260902171227 | 21 | 270 | 4.8 | 9.7 | 0.00 | 0.00 | 0.00 | 4 | 1004.7 |
| 20260902170706 | 21 | 292 | 0.0 | 0.0 | 0.00 | 0.00 | 0.00 | 4 | 1004.7 |
| 20260902170651 | 21 | 270 | 4.8 | 9.7 | 0.00 | 0.00 | 0.00 | 4 | 1004.5 |
| 20260902170136 | 21 | 270 | 4.8 | 9.7 | 0.00 | 0.00 | 0.00 | 4 | 1004.5 |
| 20260902165615 | 21 | 292 | 0.0 | 4.8 | 0.00 | 0.00 | 0.00 | 5 | 1004.5 |
| 20260902165100 | 21 | 292 | 4.8 | 8.0 | 0.00 | 0.00 | 0.00 | 4 | 1003.9 |
| 20260902164539 | 21 | 270 | 0.0 | 0.0 | 0.00 | 0.00 | 0.00 | 4 | 1004.2 |
| 20260902164523 | 21 | 270 | 0.0 | 0.0 | 0.00 | 0.00 | 0.00 | 4 | 1004.1 |
| 20260902163953 | 21 | 292 | 0.0 | 0.0 | 0.00 | 0.00 | 0.00 | 4 | 1004.7 |
| 20260902163438 | 21 | 270 | 4.8 | 8.0 | 0.00 | 0.00 | 0.00 | 4 | 1004.5 |
| 20260902162917 | 21 | 270 | 4.8 | 3.2 | 0.00 | 0.00 | 0.00 | 4 | 1004.6 |
| 20260902162859 | 21 | 270 | 6.4 | 11.3 | 0.00 | 0.00 | 0.00 | 4 | 1004.6 |
| 20260902162338 | 21 | 270 | 6.4 | 11.3 | 0.00 | 0.00 | 0.00 | 4 | 1004.7 |
| 20260902161823 | 21 | 270 | 6.4 | 12.9 | 0.00 | 0.00 | 0.00 | 4 | 1004.0 |
| 20260902161301 | 21 | 292 | 6.4 | 8.0 | 0.00 | 0.00 | 0.00 | 4 | 1004.0 |
| 20260902161245 | 21 | 270 | 6.4 | 9.7 | 0.00 | 0.00 | 0.00 | 4 | 1003.9 |
| 20260902160724 | 22 | 292 | 4.8 | 9.7 | 0.00 | 0.00 | 0.00 | 4 | 1004.1 |
| 20260902160208 | 22 | 247 | 4.8 | 8.0 | 0.00 | 0.00 | 0.00 | 4 | 1004.4 |
| 20260902155653 | 21 | 247 | 4.8 | 8.0 | 0.00 | 0.00 | 0.00 | 4 | 1004.7 |
| 20260902155132 | 21 | 247 | 0.0 | 0.0 | 0.00 | 0.00 | 0.00 | 4 | 1003.7 |
| 20260902155117 | 21 | 270 | 8.0 | 12.9 | 0.00 | 0.00 | 0.00 | 4 | 1003.8 |
| 20260902154602 | 21 | 270 | 11.3 | 20.9 | 0.00 | 0.00 | 0.00 | 4 | 1003.1 |
| 20260902154047 | 22 | 225 | 11.3 | 20.9 | 0.00 | 0.00 | 0.00 | 4 | 1003.5 |
| 20260902153526 | 22 | 270 | 8.0 | 16.1 | 0.00 | 0.00 | 0.00 | 4 | 1002.4 |
| 20260902153004 | 22 | 247 | 9.7 | 14.5 | 0.00 | 0.00 | 0.00 | 4 | 1002.6 |
| 20260902152949 | 22 | 247 | 14.5 | 29.0 | 0.00 | 0.00 | 0.00 | 4 | 1003.6 |
| 20260902152434 | 22 | 202 | 19.3 | 29.0 | 0.00 | 0.00 | 0.00 | 4 | 1003.8 |
| 20260902151913 | 23 | 225 | 12.9 | 29.0 | 0.00 | 0.00 | 0.00 | 3 | 1005.4 |
| 20260902151358 | 23 | 292 | 12.9 | 22.5 | 0.00 | 0.00 | 0.00 | 4 | 1004.3 |
| 20260902150837 | 22 | 247 | 6.4 | 8.0 | 0.00 | 0.00 | 0.00 | 4 | 1002.8 |
| 20260902150820 | 22 | 247 | 11.3 | 22.5 | 0.00 | 0.00 | 0.00 | 4 | 1003.0 |
| 20260902150259 | 22 | 270 | 9.7 | 19.3 | 0.00 | 0.00 | 0.00 | 4 | 1002.3 |
| 20260902145743 | 23 | 270 | 12.9 | 20.9 | 0.00 | 0.00 | 0.00 | 4 | 1003.8 |
| 20260902145222 | 22 | 270 | 17.7 | 24.1 | 0.00 | 0.00 | 0.00 | 4 | 1002.6 |
| 20260902145204 | 22 | 270 | 16.1 | 25.7 | 0.00 | 0.00 | 0.00 | 4 | 1002.8 |
| 20260902144643 | 23 | 225 | 11.3 | 22.5 | 0.00 | 0.00 | 0.00 | 3 | 1005.4 |
| 20260902144128 | 24 | 315 | 4.8 | 0.0 | 0.00 | 0.00 | 0.00 | 3 | 1004.6 |
| 20260902143607 | 23 | 225 | 0.0 | 0.0 | 0.00 | 0.00 | 0.00 | 3 | 1005.8 |
| 20260902143550 | 23 | 202 | 4.8 | 4.8 | 0.00 | 0.00 | 0.00 | 3 | 1005.6 |
| 20260902143029 | 22 | 270 | 6.4 | 9.7 | 0.00 | 0.00 | 0.00 | 4 | 1003.9 |
| 20260902142514 | 22 | 247 | 6.4 | 9.7 | 0.00 | 0.00 | 0.00 | 4 | 1003.7 |
| 20260902141959 | 21 | 247 | 6.4 | 14.5 | 0.00 | 0.00 | 0.00 | 4 | 1004.4 |
| 20260902141438 | 21 | 247 | 0.0 | 0.0 | 0.00 | 0.00 | 0.00 | 4 | 1003.7 |
| 20260902141422 | 21 | 270 | 8.0 | 11.3 | 0.00 | 0.00 | 0.00 | 4 | 1003.4 |
| 20260902140901 | 21 | 225 | 9.7 | 16.1 | 0.00 | 0.00 | 0.00 | 4 | 1004.2 |
| 20260902140346 | 22 | 270 | 6.4 | 11.3 | 0.00 | 0.00 | 0.00 | 4 | 1003.0 |
| 20260902135831 | 21 | 225 | 9.7 | 17.7 | 0.00 | 0.00 | 0.00 | 4 | 1004.7 |
| 20260902135310 | 23 | 157 | 6.4 | 8.0 | 0.00 | 0.00 | 0.00 | 3 | 1006.5 |
| 20260902135254 | 23 | 135 | 8.0 | 17.7 | 0.00 | 0.00 | 0.00 | 3 | 1006.4 |
| 20260902134733 | 23 | 225 | 8.0 | 17.7 | 0.00 | 0.00 | 0.00 | 4 | 1004.0 |
| 20260902134218 | 23 | 270 | 6.4 | 11.3 | 0.00 | 0.00 | 0.00 | 4 | 1005.7 |